Other Public Products
Issued by NWS Grand Forks, ND

Home | Current Version | Previous Version | Text Only | Print | Product List | Glossary On
Versions: 1 2 3 4 5 6 7 8 9 10 11 12 13 14 15 16 17 18 19 20 21 22 23 24 25 26 27 28 29 30 31 32 33 34 35 36 37 38 39 40 41 42 43 44 45 46 47 48 49 50
000
FPUS83 KFGF 251131
OPUFGF
PRAIRIE TO PINES WEATHER ROUNDUP
NATIONAL WEATHER SERVICE EASTERN NORTH DAKOTA/GRAND FORKS ND
600 AM CDT SAT OCT 25 2014

 **SATELLITE DATA USED TO AUGMENT SKY COVER AT AUTOMATED STATIONS**
 *****  WEATHER ACROSS EASTERN NORTH DAKOTA  *****

CITY           SKY/WX    TMP DP  RH WIND       PRES   REMARKS
GRAND FORKS    PTCLDY    40  32  73 W6        30.00R
GRAND FORKS AF PTCLDY    42  34  71 NW7       30.01R
GRAND CITY NWS   N/A     39 N/A N/A W6          N/A
BUXTON           N/A     40  37  87 W7          N/A
DEVILS LAKE    PTCLDY    41  28  60 W10       30.03R
FARGO          CLOUDY    43  32  65 W9        30.04R
WAHPETON ARPT  MOSUNNY   39  30  70 W7        30.05S
$$

 *****  WEATHER ACROSS CENTRAL AND WESTERN NORTH DAKOTA  *****

CITY           SKY/WX    TMP DP  RH WIND       PRES   REMARKS
JAMESTOWN      PTCLDY    38  32  79 NW6       30.07R
BISMARCK       MOCLDY    45  33  63 W6        30.11R
MINOT          MOCLDY    43  29  57 W8        30.09R
MINOT AFB      MOCLDY    36  31  80 W10       30.08R
GARRISON         N/A     40  32  73 NW6       30.09S
WILLISTON      PTCLDY    37  30  75 CALM      30.11R
DICKINSON      MOCLDY    45  30  55 NW5       30.09F
HETTINGER      CLEAR     34  28  79 W3        30.15R
$$

 *****  OTHER OBSERVATIONS NORTHEAST NORTH DAKOTA  *****

CITY           SKY/WX    TMP DP  RH WIND       PRES   REMARKS
WALHALLA       FAIR      45  30  57 NW12G22   29.99R
LANGDON        FAIR      32  27  80 W12       30.00R WCI  23
CAVALIER       FAIR      41  32  70 W9        29.98R
GRAFTON        FAIR      41  32  70 W16       29.99R
CANDO          FAIR      32  30  93 W8        30.05R WCI  25
FORT TOTTEN      N/A     43  34  71 NW6       29.95S
ROLLA          FAIR      43  25  49 NW13G18   30.03R
RUGBY          FAIR      30  28  93 W7        30.06R WCI  23
 ***** THE ABOVE OBSERVATIONS ARE NON NWS ARE NOT QUALITY
        CONTROLLED AND MAY MIS-REPORT RAIN FOR SNOW...
$$

 *****  OTHER OBSERVATIONS SOUTHEAST NORTH DAKOTA *****

CITY           SKY/WX    TMP DP  RH WIND       PRES   REMARKS
COOPERSTOWN    NOT AVBL
VALLEY CITY    FAIR      39  32  75 W12       30.06S
OAKES            N/A     46  37  71 NW8       30.09R
GWINNER        MOSUNNY   48  32  53 W9        30.09R
BUFFALO          N/A     40  31  69 W8          N/A
WYNDMERE         N/A     43  34  70 W5          N/A
 ***** THE ABOVE OBSERVATIONS ARE NON NWS ARE NOT QUALITY
       CONTROLLED AND MAY MIS-REPORT RAIN FOR SNOW...
$$

  *****  WEATHER ACROSS NORTHERN MINNESOTA  *****

CITY           SKY/WX    TMP DP  RH WIND       PRES   REMARKS
FLAG ISLAND    CLEAR     45  34  65 W17       29.85R
WARROAD        CLEAR     39  34  81 W12       29.91R
ROSEAU         CLEAR     43  34  70 W8        29.92R
HALLOCK        CLEAR     37  30  75 W10       29.96R
THF RVR FALLS  CLEAR     37  30  75 W7        29.98R
HALSTAD          N/A     42  30  62 W8          N/A
FOSSTON        CLEAR     36  30  80 W7        30.00R
BAUDETTE       CLEAR     41  31  67 W3        29.88R
WASKISH        CLEAR     45  36  70 W15       29.92R
CROOKSTON      CLEAR     41  34  75 W10       30.01R
$$
  *****  WEATHER ACROSS CENTRAL AND WEST MINNESOTA  *****

CITY           SKY/WX    TMP DP  RH WIND       PRES   REMARKS
BEMIDJI        CLEAR     40  31  70 W9        29.96R
PARK RAPIDS    CLEAR     42  31  64 W9        29.98R
WADENA         CLEAR     45  32  61 W7        30.00S
DETROIT LAKES  PTCLDY    43  32  65 NW12      30.02S
MOORHEAD       CLOUDY    46  34  61 NW8       30.05R
FERGUS FALLS   PTCLDY    39  28  65 W6        30.06R
ELBOW LAKE     FAIR      42  33  70 NW8       30.04S
MORRIS MN      PTCLDY    50  36  57 NW9       30.04S
STAPLES        CLEAR     43  32  65 W9        29.99R
WHEATON        MOCLDY    48  36  61 W8        30.08R
$$
  *****  WEATHER ELSEWHERE ACROSS MINNESOTA  *****

CITY           SKY/WX    TMP DP  RH WIND       PRES   REMARKS
DULUTH         CLEAR     49  33  54 NW16G24   29.84R
INTRNTL FALLS  CLEAR     42  33  70 W10       29.84R
ELY            CLEAR     46  32  57 W14G30    29.80R
CLOQUET        CLEAR     48  30  49 W12G17    29.88R
BRAINERD       CLEAR     48  33  56 W12       29.96R
HIBBING        CLEAR     49  31  49 NW15G21   29.86R
ALEXANDRIA     FAIR      46  33  60 W9        30.04R
SAINT CLOUD    CLEAR     52  34  50 W10       29.99R
MINNEAPOLIS    CLEAR     55  34  45 NW10      29.98R
$$

  *****  WEATHER ACROSS SOUTH DAKOTA  *****

CITY           SKY/WX    TMP DP  RH WIND       PRES   REMARKS
SIOUX FALLS    PTCLDY    47  39  74 NW5       30.08R
BROOKINGS      NOT AVBL
WATERTOWN      MOCLDY    50  37  61 NW7       30.07S
HURON          PTCLDY    44  38  79 NW6       30.10R
SISSETON         N/A     54  32  43 NW12      30.06R
ABERDEEN       CLOUDY    50  36  58 NW5       30.09S
MITCHELL       CLEAR     45  38  76 NW7       30.11R
PIERRE         CLEAR     43  34  70 NW6       30.11S
MOBRIDGE       PTCLDY    43  34  70 CALM      30.10R
RAPID CITY     CLEAR     37  30  75 NW6       30.15S
$$

  *****  SOME WEATHER IN NEARBY STATES *****

CITY           SKY/WX    TMP DP  RH WIND       PRES   REMARKS
GLASGOW MT     CLOUDY    42  33  70 E5        30.08F
GREAT FALLS MT CLOUDY    40  38  93 CALM      30.00F
CHEYENNE WY    PTCLDY    43  23  45 W9        30.25S
SCOTTSBLUFF NE CLEAR     45  32  60 N8        30.16R
OMAHA NE       CLEAR     50  47  89 N9        30.05R
DES MOINES IA  CLEAR     54  47  77 N9        30.02R
DAVENPORT IA   FOG       53  52  96 W6        29.96R VSB 1/4
CHICAGO IL     CLOUDY    57  54  89 W8        29.91R
EAU CLAIRE WI  CLEAR     45  40  82 SW6       29.92R
LA CROSSE WI   FOG       45  43  93 NE3       29.94S VSB 1/4
$$

  *****  SOME NATIONAL WEATHER *****

CITY           SKY/WX    TMP DP  RH WIND       PRES   REMARKS
LA GUARDIA NY  PTCLDY    52  37  56 NW8       29.86S
RALEIGH NC     CLEAR     41  39  93 CALM      30.00R
ATLANTA GA     CLEAR     49  42  77 NW7       30.04R
NEW ORLEANS LA CLEAR     59  51  75 NE8       30.12R
OKLAHOMA CITY  CLEAR     60  57  89 S7        30.06S
ALBUQUERQUE NM CLEAR     54  36  50 CALM      30.29S
SALT LAKE CITY CLEAR     58  30  34 SE13      30.06F
LOS ANGELES CA PTCLDY    64  62  94 CALM      29.99S
BOISE ID       FOG       43  43 100 N7        29.85F VSB 1/2
SEATTLE WA     CLOUDY    49  47  93 CALM      29.58F
$$

*** WEATHER ACROSS MANITOBA...SASKATCHEWAN AND ONTARIO ***
                ***ONTARIO***

CITY           SKY/WX    TMP DP  RH WIND       PRES   REMARKS
GERALDTON      MOCLDY    46  39  76 W9G17     29.45S
THUNDER BAY    CLEAR     52  34  50 W21G29    29.62S
SIOUX LOOKOUT  CLOUDY    46  34  61 W15G25    29.68S
TORONTO        MOCLDY    48  45  87 SW2       29.80F
BIG TROUT LK   LGT RAIN  43  41  93 NW21G33   29.32R
PICKLE LAKE    MOCLDY    41  32  70 W21G33    29.49
DRYDEN         CLOUDY    46  32  57 W16G33    29.72R
KENORA         CLEAR     43  32  65 W12       29.81R
$$
                *** MANITOBA***

CITY           SKY/WX    TMP DP  RH WIND       PRES   REMARKS
BRANDON        CLEAR     34  28  80 W13       29.99R WCI  25
DAUPHIN        CLEAR     39  30  70 W13       29.93S
ISLAND LAKE    LGT RAIN  39  36  87 NW20G32   29.59R
PILOT MOUND      N/A     39  30  70 W8          N/A
THE PAS        CLOUDY    37  30  75 W16G28    29.80R
THOMPSON       CLOUDY    36  30  80 W16G23    29.60
WINNIPEG       CLEAR     39  32  75 W15       29.91R
LYNN LAKE      CLOUDY    32  27  80 W14G25    29.63R WCI  22
CHURCHILL      CLOUDY    37  37 100 N9        29.37R FOG
GILLAM         CLOUDY    37  36  93 W17G28    29.46S
$$
                ***SASKATCHEWAN***

CITY           SKY/WX    TMP DP  RH WIND       PRES   REMARKS
ESTEVAN        PTCLDY    28  27  93 W7        30.08R WCI  21
KINDERSLEY     PTCLDY    27  23  86 CALM      30.03F
LLOYDMINSTER   NOT AVBL
PRINCE ALBERT  PTCLDY    34  27  75 W9        29.93R
REGINA         CLEAR     28  27  93 W3        30.06S
YORKTON        CLEAR     36  28  75 SW10      29.98S



USA.gov is the U.S. government's official web portal to all federal, state and local government web resources and services.